Temp
18 17 14 14 15 15 15 13 14 14 14 13 12 12 12 12 12 13 14 14 14 13 12 11 11 12 11 12 11 12 12 12 12 13 12 12 12 12 13 13 14 17 15
16 16 15 16 14 13 13 13 13 12 12 12 12 12 12 12 12 13 12 12 12 11 11 11 11 11 10 11 11 10 10 10 10 11 11 12 11 11 11 12 11 11 12
14 15 16 14 13 13 12 12 12 11 11 11 12 12 12 12 13 12 13 12 12 12 11 11 11 10 10 10 10 10 10 10 11 11 11 11 11 11 11 10 10 10 11
13 13 13 12 12 12 12 12 12 12 12 12 12 12 12 12 12 12 12 12 11 11 11 11 11 10 10 10 10 9 10 9 10 10 11 11 10 10 9 10 10 10 11
12 13 13 12 12 12 12 12 12 11 11 11 12 11 11 12 12 11 11 11 12 12 12 11 11 11 11 11 10 9 8 9 9 9 9 9 8 8 8 8 8 8 9
13 12 13 12 12 12 12 12 12 12 12 12 11 11 11 11 12 12 11 11 11 12 11 11 11 10 11 10 11 11 10 9 7 8 8 7 7 7 7 7 7 7 7
12 11 11 10 11 11 11 11 11 11 11 11 11 10 11 11 12 12 11 12 12 12 12 12 11 12 11 10 10 10 9 9 8 7 7 7 7 7 7 7 7 7 7
12 12 12 11 11 11 10 10 10 10 10 10 10 10 10 11 12 12 12 12 12 13 12 11 11 11 10 11 11 11 9 9 9 8 8 9 7 7 7 7 7 7 7
12 12 11 11 11 11 11 11 10 10 11 11 11 11 10 11 12 12 12 12 12 12 12 11 11 11 11 11 11 11 10 9 10 9 8 8 8 9 9 8 7 7 7
12 12 11 11 11 11 11 11 11 11 11 11 11 11 10 11 12 12 12 12 13 13 13 13 12 12 12 11 11 11 10 9 9 10 8 9 8 8 7 7 7 7 7
12 11 11 11 10 10 10 10 10 10 10 10 10 10 10 11 12 13 13 13 12 13 14 14 13 12 12 12 11 10 10 10 10 9 10 11 10 10 9 7 8 7 7
11 11 11 11 11 12 11 10 10 10 10 10 10 11 12 12 12 13 13 13 13 13 13 13 13 12 12 12 11 11 11 10 10 10 11 11 10 10 9 9 8 8 7
11 11 11 11 11 11 11 11 11 11 11 12 13 13 13 14 13 13 13 13 13 13 13 13 13 13 12 12 12 11 11 10 10 10 11 10 10 10 9 10 9 9 9
11 11 11 11 11 11 12 12 12 13 13 13 13 13 13 14 14 14 14 13 13 12 12 12 13 13 13 12 12 11 10 10 10 9 10 10 10 10 10 10 10 10 9
12 12 12 12 12 12 12 12 12 12 12 13 13 13 13 14 14 13 13 13 13 12 13 13 12 12 12 12 12 12 12 11 10 10 10 10 10 10 10 9 10 10 10
12 13 13 13 13 13 13 13 13 12 12 12 12 13 13 13 13 13 13 13 13 13 13 13 12 12 13 13 13 13 12 12 11 10 10 10 10 10 10 9 10 10 10
11 12 13 12 13 13 13 13 13 14 13 13 13 13 14 14 14 14 14 14 13 13 14 14 13 13 13 13 13 13 13 12 11 10 10 10 10 10 10 10 10 10 10
12 12 12 13 13 13 13 14 14 14 14 14 14 14 13 13 13 13 14 13 14 13 14 13 13 13 13 13 13 13 13 13 12 11 11 10 10 10 10 10 10 10 9
12 13 13 14 13 13 13 13 14 14 14 14 14 14 14 14 13 13 14 14 13 13 13 14 14 14 13 13 13 13 12 12 12 12 11 11 10 10 10 10 10 9 9
13 13 13 13 13 14 14 14 14 15 15 15 15 15 15 15 15 14 14 14 13 13 13 13 13 12 12 12 12 11 10 10 10 11 10 10 10 10 10 9 9 9 9
14 15 14 14 14 15 15 15 15 15 15 15 15 15 14 13 13 13 13 13 12 11 10 10 10 9 9 9 8 8 8 8 8 8 8 8 8 9 9 8 8 7 7
15 15 15 16 16 16 16 16 16 16 16 16 16 16 15 14 13 13 13 12 11 10 9 8 8 8 8 8 7 7 7 7 7 7 6 7 6 6 6 5 5 6 7
15 15 16 16 16 16 16 16 17 16 16 15 15 14 12 12 11 11 10 9 8 8 8 7 7 6 7 6 6 6 6 5 5 6 5 6 5 5 4 4 4 5 5
15 16 16 16 17 17 16 17 17 16 15 14 13 12 11 10 9 8 8 8 7 7 7 6 6 6 6 5 5 5 4 4 5 4 4 4 4 4 4 4 4 5 5
16 16 17 17 17 17 17 16 15 13 12 11 10 10 9 10 9 8 8 7 7 6 6 6 6 5 5 4 3 3 4 4 5 4 4 3 3 3 4 3 3 4 5
16 16 16 17 16 15 15 15 13 13 11 11 10 9 8 8 7 7 6 6 6 6 5 5 5 4 4 4 3 3 3 3 3 4 4 3 4 4 4 4 4 5 5
Height
1544 1547 1549 1560 1565 1557 1552 1552 1555 1556 1561 1563 1564 1568 1569 1568 1570 1572 1571 1572 1572 1570 1568 1564 1564 1562 1562 1562 1559 1557 1554 1551 1548 1542 1540 1536 1529 1524 1519 1515 1510 1506 1504
1542 1543 1548 1554 1559 1557 1554 1554 1553 1558 1562 1563 1563 1569 1567 1569 1570 1569 1570 1569 1570 1570 1566 1564 1561 1562 1559 1559 1558 1555 1551 1549 1544 1538 1535 1529 1525 1520 1513 1507 1504 1500 1496
1541 1544 1548 1553 1556 1555 1555 1554 1554 1556 1561 1563 1563 1570 1571 1570 1569 1571 1567 1567 1567 1567 1564 1563 1559 1558 1556 1556 1552 1549 1549 1545 1541 1536 1530 1528 1522 1516 1509 1503 1497 1493 1490
1542 1545 1548 1552 1554 1556 1556 1556 1555 1558 1561 1563 1567 1570 1570 1569 1567 1567 1567 1565 1565 1564 1563 1561 1558 1554 1554 1551 1548 1545 1543 1539 1535 1532 1526 1520 1516 1511 1505 1498 1490 1488 1484
1545 1545 1549 1552 1555 1556 1556 1556 1556 1559 1562 1565 1566 1567 1567 1565 1564 1564 1563 1564 1563 1561 1560 1558 1555 1554 1550 1546 1544 1540 1537 1533 1530 1524 1521 1516 1509 1504 1500 1492 1486 1479 1475
1548 1549 1551 1552 1554 1555 1556 1556 1559 1561 1562 1563 1564 1563 1563 1562 1560 1561 1561 1560 1559 1558 1556 1552 1552 1550 1546 1541 1537 1533 1531 1526 1523 1520 1514 1509 1502 1497 1492 1487 1480 1472 1466
1552 1551 1551 1553 1553 1554 1556 1557 1558 1559 1560 1560 1560 1559 1558 1558 1559 1558 1557 1556 1555 1554 1550 1548 1547 1547 1542 1537 1535 1530 1524 1520 1517 1513 1508 1503 1498 1492 1486 1480 1474 1467 1463
1553 1553 1552 1553 1553 1554 1555 1556 1557 1558 1559 1558 1557 1556 1555 1555 1554 1553 1552 1552 1550 1548 1546 1545 1543 1541 1537 1533 1528 1524 1521 1518 1516 1510 1504 1497 1492 1487 1480 1475 1469 1462 1456
1554 1554 1554 1555 1555 1556 1557 1557 1557 1557 1555 1554 1553 1552 1552 1549 1549 1548 1548 1547 1546 1545 1543 1540 1538 1536 1532 1529 1523 1519 1516 1513 1509 1503 1497 1492 1487 1480 1476 1467 1463 1457 1454
1554 1554 1554 1554 1554 1554 1554 1554 1553 1552 1551 1550 1548 1548 1546 1544 1543 1544 1543 1543 1543 1540 1538 1535 1531 1530 1527 1522 1519 1515 1512 1508 1502 1495 1493 1489 1484 1481 1472 1465 1459 1455 1450
1551 1551 1552 1551 1551 1552 1552 1551 1551 1549 1548 1546 1546 1544 1540 1538 1539 1540 1538 1537 1537 1535 1532 1529 1527 1524 1521 1517 1516 1513 1506 1502 1496 1494 1490 1487 1483 1477 1471 1464 1458 1452 1447
1548 1549 1550 1549 1549 1550 1548 1548 1547 1545 1543 1542 1540 1537 1536 1535 1533 1532 1532 1531 1530 1528 1526 1524 1522 1518 1515 1513 1510 1507 1501 1498 1496 1493 1490 1484 1477 1472 1468 1462 1456 1448 1443
1546 1546 1546 1546 1545 1545 1544 1543 1543 1541 1539 1538 1535 1533 1531 1530 1529 1527 1527 1525 1524 1521 1519 1517 1514 1511 1508 1506 1504 1500 1497 1495 1493 1490 1485 1479 1474 1469 1464 1458 1452 1446 1441
1543 1543 1542 1541 1541 1540 1540 1539 1538 1536 1535 1533 1531 1529 1527 1526 1524 1523 1521 1517 1516 1514 1511 1507 1505 1503 1500 1498 1495 1493 1491 1490 1487 1483 1479 1474 1470 1466 1461 1455 1448 1443 1437
1539 1538 1537 1537 1536 1535 1534 1534 1533 1531 1530 1529 1527 1526 1523 1521 1519 1517 1516 1514 1512 1509 1504 1500 1498 1496 1493 1491 1488 1487 1485 1482 1480 1477 1473 1470 1466 1462 1456 1450 1444 1439 1433
1535 1534 1533 1532 1531 1530 1530 1528 1526 1525 1524 1522 1520 1518 1515 1513 1511 1509 1507 1505 1502 1499 1495 1491 1489 1487 1485 1482 1480 1478 1476 1474 1471 1469 1466 1463 1460 1455 1450 1445 1440 1435 1429
1531 1531 1530 1528 1527 1526 1524 1523 1521 1519 1516 1514 1512 1509 1506 1503 1502 1500 1498 1495 1492 1490 1485 1482 1480 1478 1475 1473 1471 1469 1466 1465 1463 1459 1457 1455 1452 1448 1444 1440 1435 1430 1425
1527 1526 1525 1524 1523 1521 1519 1518 1516 1513 1510 1508 1505 1501 1498 1495 1492 1490 1488 1485 1483 1479 1475 1472 1470 1468 1466 1463 1461 1458 1456 1455 1453 1451 1448 1445 1443 1440 1437 1433 1429 1425 1420
1523 1522 1521 1519 1518 1516 1514 1512 1509 1506 1504 1500 1497 1494 1490 1486 1483 1481 1478 1475 1473 1471 1468 1465 1462 1459 1457 1454 1451 1449 1447 1446 1445 1442 1439 1436 1434 1431 1428 1425 1422 1418 1414
1518 1516 1515 1513 1512 1510 1508 1505 1502 1499 1495 1492 1488 1485 1482 1480 1476 1474 1471 1468 1466 1463 1460 1456 1455 1452 1448 1444 1442 1439 1437 1435 1433 1431 1428 1427 1424 1421 1419 1417 1414 1412 1408
1512 1511 1510 1508 1505 1502 1500 1497 1494 1491 1487 1483 1480 1476 1474 1471 1467 1464 1461 1459 1456 1451 1451 1450 1444 1444 1440 1437 1433 1432 1429 1426 1424 1420 1417 1417 1416 1412 1410 1409 1407 1404 1401
1507 1505 1503 1501 1498 1495 1492 1489 1486 1482 1478 1474 1471 1467 1463 1461 1459 1456 1455 1451 1448 1443 1439 1437 1436 1436 1433 1430 1425 1422 1419 1416 1414 1411 1409 1407 1405 1402 1400 1399 1397 1394 1392
1501 1499 1496 1493 1490 1487 1483 1479 1476 1473 1470 1467 1463 1459 1460 1458 1454 1450 1445 1443 1439 1436 1433 1430 1427 1425 1422 1419 1416 1414 1413 1411 1408 1404 1401 1399 1396 1394 1392 1389 1387 1385 1383
1494 1491 1489 1486 1482 1479 1476 1472 1468 1466 1462 1459 1454 1452 1449 1448 1448 1445 1439 1435 1432 1429 1425 1423 1420 1419 1416 1415 1413 1411 1408 1405 1401 1398 1396 1393 1390 1389 1386 1383 1381 1378 1376
1487 1484 1481 1478 1474 1471 1468 1465 1462 1458 1455 1451 1449 1446 1445 1442 1437 1435 1433 1429 1425 1422 1420 1419 1416 1414 1413 1412 1410 1407 1404 1401 1398 1395 1391 1389 1386 1383 1380 1378 1376 1374 1371
1479 1476 1474 1471 1468 1465 1461 1458 1456 1453 1450 1448 1446 1442 1440 1436 1433 1430 1426 1424 1421 1419 1417 1415 1413 1413 1411 1410 1405 1403 1401 1398 1395 1391 1388 1385 1385 1382 1379 1376 1373 1371 1368
Wind_Speed
19 21 20 18 8 3 3 3 8 12 15 10 5 7 11 12 8 5 4 4 4 6 7 8 10 12 10 10 11 11 13 14 21 26 24 25 30 29 31 31 31 33 30
4 6 13 13 14 10 8 11 9 6 3 5 4 6 6 8 8 6 4 3 4 5 7 9 7 9 12 12 14 15 15 15 18 25 28 27 30 29 31 36 29 28 28
7 12 14 11 13 14 8 4 2 1 2 4 6 8 9 8 7 6 4 4 5 9 10 11 11 12 12 15 17 15 16 16 19 24 29 27 28 27 30 30 31 30 26
6 8 6 5 7 7 7 6 7 8 6 6 7 8 8 8 7 6 7 6 7 9 11 13 14 13 14 15 18 17 15 19 19 24 27 29 28 28 29 31 32 27 28
11 11 10 10 9 7 6 6 6 7 6 7 9 10 11 11 8 10 8 9 11 12 14 13 13 16 20 22 23 18 19 18 21 23 28 30 30 29 31 30 31 30 27
11 10 9 9 9 7 6 5 6 7 8 10 11 12 12 13 12 12 13 12 14 14 16 13 15 16 16 25 27 25 21 21 22 23 28 31 34 28 28 27 31 31 33
7 8 8 8 7 5 4 4 5 6 9 11 12 12 14 15 14 12 13 16 15 14 15 16 16 14 21 20 25 25 22 21 23 26 28 29 32 31 31 32 30 30 34
5 5 5 4 4 3 4 4 6 7 8 10 11 12 13 14 13 12 15 14 14 15 17 17 17 16 16 23 26 25 20 19 20 21 24 30 29 27 25 27 29 31 30
5 5 5 6 6 6 7 8 8 9 10 11 12 13 15 15 13 14 15 14 15 17 18 18 17 16 18 23 24 24 24 20 19 24 29 24 27 20 19 22 24 22 28
7 7 7 7 7 7 8 9 9 11 13 14 15 16 17 18 15 14 15 16 18 19 19 19 21 20 18 21 23 22 22 20 26 22 19 20 23 23 23 16 20 23 23
6 7 8 7 8 8 9 10 11 13 13 14 16 17 17 17 18 15 16 20 19 21 21 20 20 22 22 20 22 23 20 24 25 18 20 20 21 20 20 25 21 19 26
7 8 8 8 8 9 11 11 12 13 14 15 16 15 15 16 16 16 16 19 22 23 22 21 20 25 24 22 22 22 20 21 16 19 19 20 21 21 22 19 21 22 22
10 11 12 12 12 12 12 13 13 14 14 14 13 13 13 13 15 15 18 20 22 24 24 24 25 26 28 26 22 22 22 15 16 18 19 20 21 21 22 21 20 20 24
10 11 12 14 14 13 14 13 14 14 13 13 13 14 14 15 15 16 18 19 20 23 23 23 26 29 29 26 27 23 18 17 17 16 18 20 20 21 22 23 23 23 25
10 12 12 12 12 13 14 14 15 15 15 15 16 18 20 21 19 20 24 24 23 24 31 34 28 25 25 23 22 22 21 20 19 19 19 20 20 22 22 23 23 25 26
9 8 9 11 12 13 14 16 17 19 18 20 23 25 25 25 26 25 27 27 27 28 31 32 27 26 26 26 26 26 25 24 22 20 20 20 21 22 23 23 24 26 28
8 9 9 11 12 14 15 17 18 18 20 22 22 22 23 25 25 27 27 29 30 31 33 34 27 27 27 26 26 27 28 27 25 23 21 22 21 22 23 24 24 25 28
11 13 14 13 13 14 15 17 18 20 22 23 23 26 29 33 30 27 24 26 29 28 28 29 27 27 27 27 28 28 28 29 29 27 25 24 23 24 24 25 25 26 28
14 14 14 14 15 17 18 20 21 22 24 25 25 25 24 23 24 25 20 23 25 23 23 25 28 28 27 26 27 26 27 29 31 32 31 29 27 25 25 25 27 28 29
16 18 19 18 19 19 20 22 24 25 26 26 26 25 23 20 20 20 22 23 25 27 27 25 24 25 26 26 25 25 24 24 27 29 31 30 30 29 28 26 25 27 29
15 15 17 19 20 21 23 24 25 25 26 27 27 26 27 27 26 24 21 19 20 20 19 19 16 19 19 17 19 16 20 23 24 24 28 33 34 31 28 28 27 27 27
15 17 19 21 22 21 22 23 25 25 26 27 28 29 27 27 25 21 21 25 25 23 23 26 27 30 29 29 30 37 36 40 35 30 27 28 33 33 35 28 26 24 25
18 21 22 23 23 24 25 26 27 28 27 25 26 30 37 28 27 25 24 23 20 25 23 28 30 24 24 20 18 17 18 18 19 20 22 24 27 28 32 33 33 31 28
22 24 25 26 26 27 28 30 29 28 27 27 32 31 24 20 20 26 24 17 23 27 24 18 12 10 13 11 14 18 18 19 18 19 20 23 24 21 20 23 22 23 24
23 25 26 26 27 28 28 28 30 26 22 23 18 13 15 27 26 19 22 23 21 13 11 12 15 17 10 6 5 8 14 16 17 18 18 17 17 16 16 17 18 20 18
22 22 23 23 24 23 24 23 21 19 16 13 13 19 23 18 20 20 16 12 12 14 15 13 8 4 4 5 9 12 15 17 18 18 17 14 14 16 16 19 18 18 19
Wind_Direction
273 293 286 278 263 195 145 272 252 243 233 237 221 243 249 253 246 217 229 265 316 341 352 348 348 341 333 328 321 315 304 300 294 298 300 306 303 306 303 303 303 300 297
268 204 194 194 223 244 259 261 206 212 251 281 248 236 189 168 187 199 187 265 301 312 331 338 339 330 334 328 318 310 302 300 297 299 305 308 305 305 305 304 305 301 296
170 163 171 216 265 264 231 174 161 136 147 164 167 187 190 203 215 233 243 281 313 325 331 325 328 324 326 315 321 312 305 302 302 300 300 306 300 302 302 304 304 302 303
158 185 191 173 183 170 159 149 132 132 141 156 187 211 227 232 234 245 274 301 300 302 312 315 316 316 314 313 320 310 310 301 310 306 302 304 304 304 304 306 304 302 299
134 128 136 145 145 143 133 136 142 159 182 215 235 243 248 245 247 265 267 275 289 301 306 302 313 302 313 323 321 308 302 306 306 310 307 305 304 309 306 304 299 303 297
125 131 144 143 144 142 147 160 192 218 238 249 253 252 255 255 255 254 258 268 290 292 296 300 299 311 316 316 325 324 319 315 305 307 307 302 306 305 305 303 303 303 302
140 145 145 151 150 162 184 211 239 256 261 267 270 271 269 264 259 257 263 282 285 295 305 303 299 305 306 319 321 319 318 317 312 309 310 307 302 308 308 306 305 304 297
152 155 162 179 183 210 233 251 259 263 269 274 276 272 269 264 269 265 277 277 282 297 292 287 288 296 306 320 326 326 314 309 305 304 307 321 316 305 306 299 296 303 307
191 202 204 217 223 238 250 255 256 265 275 284 287 284 273 270 276 273 276 285 287 286 286 278 275 278 302 318 325 330 325 310 315 306 309 323 332 325 319 310 307 305 307
206 214 222 229 238 248 255 264 277 284 288 290 289 284 278 273 275 276 271 283 280 289 294 285 286 292 298 312 320 323 325 315 320 325 322 321 320 321 328 323 306 294 306
212 216 218 220 228 242 257 269 275 280 282 288 288 283 279 267 276 271 275 281 285 287 292 293 288 279 290 305 311 313 317 321 325 329 323 323 323 324 325 327 329 303 294
212 219 228 235 246 263 272 274 274 279 288 290 289 293 287 273 283 274 276 284 292 284 282 287 282 279 285 295 301 306 315 315 322 317 320 323 326 328 325 322 323 321 319
243 246 249 252 259 267 268 273 279 286 287 287 286 288 289 281 275 275 287 292 287 279 283 283 287 283 283 282 289 293 297 298 300 310 316 323 324 326 325 325 327 323 325
254 260 267 267 268 265 267 269 278 282 281 280 280 283 288 285 278 276 282 281 288 292 299 293 294 292 283 268 270 278 283 278 283 297 307 317 321 324 328 330 327 328 328
268 276 273 265 263 266 264 264 268 268 267 271 276 283 286 283 284 281 280 285 282 281 285 287 281 275 276 272 268 270 271 274 278 286 293 303 310 317 325 331 334 329 326
271 279 276 269 268 269 271 275 279 281 276 276 277 281 283 278 283 283 284 284 286 288 292 289 281 277 272 270 268 270 271 271 272 276 282 291 300 311 317 327 329 332 328
262 278 286 285 279 276 276 277 282 284 286 292 293 289 284 284 286 285 286 282 282 285 288 287 276 275 271 270 271 270 270 271 269 268 278 284 291 301 308 316 320 325 327
275 288 287 282 281 280 279 279 279 283 287 290 291 290 290 292 294 292 288 286 286 287 289 285 275 274 274 271 272 272 272 272 270 269 272 274 281 292 298 305 313 317 320
278 282 283 283 281 279 277 275 277 280 284 289 294 297 297 294 291 295 295 296 296 291 291 287 282 277 276 273 273 273 274 276 274 271 273 270 275 281 286 295 304 311 317
277 279 283 278 278 280 282 283 284 285 286 287 290 293 296 295 288 287 285 286 287 288 287 287 289 285 282 278 274 278 283 282 277 273 271 271 274 276 281 284 289 301 308
272 277 279 283 284 287 288 288 287 288 288 288 288 290 288 284 284 282 279 281 280 278 284 284 289 282 286 279 299 306 299 294 293 288 279 271 277 277 271 275 287 290 296
276 282 288 289 290 290 291 292 293 293 293 293 295 294 290 286 287 283 285 298 289 279 274 287 290 294 290 289 290 304 307 305 296 286 287 290 284 275 270 274 277 284 291
281 286 289 289 289 291 291 293 295 294 292 294 294 293 296 296 298 281 286 296 281 286 288 297 296 290 301 310 314 305 302 299 306 305 302 299 293 289 275 274 279 284 292
282 285 287 288 289 291 293 295 300 297 290 284 287 298 283 290 289 294 298 289 287 294 299 298 303 301 302 297 295 302 297 306 312 312 304 297 295 292 288 287 290 294 294
286 287 288 288 290 292 295 296 293 293 294 292 297 288 274 301 302 290 290 299 306 307 298 297 300 309 311 316 334 331 321 325 321 315 311 309 310 306 309 307 300 294 290
286 289 291 292 290 289 294 297 296 298 298 302 290 284 298 301 304 308 311 308 299 295 303 307 307 299 297 292 317 323 328 329 328 323 314 313 307 301 300 298 301 300 302